Terminal Aerodrome Forecast
Issued by NWS King Salmon, AK

Home | Current Version | Previous Version | Text Only | Print | Product List | Glossary On
Versions: 1 2 3 4 5 6 7 8 9 10 11 12 13 14 15 16 17 18 19 20 21 22 23 24 25 26 27 28 29 30 31 32 33
000
FTAK31 PANC 281032 AAA
TAFAKN
TAF AMD
PAKN 281032Z 2811/2906 17007KT 2SM BR SCT002 BKN250
      TEMPO 2811/2815 1SM BR VV002
     FM282000 20013KT P6SM SCT004 BKN015 OVC050=

USA.gov is the U.S. government's official web portal to all federal, state and local government web resources and services.